Location: Unspecified
(40.7945°N, 0.0000°E)
Time: 07:02:15
(UTC+00:00)

Explorer 7 - Pass Details

Date: 27 January 2021
Orbit: 484 x 677 km, 50.3° (Epoch: 28 February)

Event Time Altitude Azimuth Distance (km) Brightness Sun altitude
Rises 04:40:16 0° 267° (W) 2,551 - -29.2°
Reaches altitude 10° 04:42:36 10° 278° (W) 1,685 - -28.8°
Maximum altitude 04:45:59 30° 341° (NNW) 930 - -28.1°
Exits shadow 04:48:10 18° 31° (NNE) 1,314 9.0 -27.7°
Drops below altitude 10° 04:49:30 10° 44° (NE) 1,754 9.9 -27.5°
Sets 04:51:59 0° 56° (NE) 2,677 11.1 -27.0°
